Погода в Казанцеве

Россия / Красноярский край     53°24′24″N   92°00′18″E
темп.,
°C
ветер,
м/с
пор.,
м/с
влажн.,
%
обл.,
%
осадки,
мм/ч
давл.,
гПа
погр.,
м
17 июня, чт
чт1701:00+11в229445 0.0 101649
04:00+10всв119235 0.0 101510
07:00+13юв118626 0.0 1015111
10:00+18юв2269100 0.0 1014484
13:00+22юв2261100 0.0 1012733
16:00+24вюв21556 0.0 1010929
19:00+22в24725 0.0 1009254
22:00+16всв22810 0.0 100911
18 июня, пт
пт1801:00+14вюв11847 0.1 100911
04:00+14юв0192100 1.4 100816
07:00+15ю259331 4.6 1009203
10:00+21ююз237014 0.1 1008497
13:00+25зюз255511 0.1 10071284
16:00+26юз2349100 0.0 10051523
19:00+23юв346881 0.0 100481
22:00+18ююв228273 0.0 100411
19 июня, сб
сб1901:00+16ююз1189100 0.0 100411
04:00+15в119117 0.0 100411
07:00+18юв12835 0.0 1004135
10:00+23юв11660 0.0 1003458
13:00+26ююв22550 0.0 1002977
16:00+28ссв22460 0.0 9991071
19:00+25вюв2471100 0.0 999177
22:00+19юз228580 0.0 100013
20 июня, вс
вс2001:00+15ю228793 0.1 100122
04:00+14ююв1188100 0.0 100111
07:00+17ю127848 0.0 1002125
10:00+21зюз347066 0.1 1003726
13:00+24зсз446389 0.1 10031426
16:00+23ссз44665 0.1 1002920
19:00+13зюз91683100 2.4 1007550
22:00+10з71196100 2.4 1012609
21 июня, пн
пн2101:00+9з5997100 5.8 1013465
04:00+8зюз6997100 5.7 1015496
07:00+9ссз0195100 8.1 1016132
10:00+10в45885 0.1 1015424
13:00+15вюв326322 0.1 10131208
16:00+17в32580 0.0 10111032
19:00+16в45710 0.0 1010523
22:00+10св34879 0.0 100962